Regional Weather Roundup
Issued by NWS

Home | Current Version | Previous Version | Graphics & Text | Print | Product List | Glossary On
Versions: 1 2 3 4 5 6 7 8 9 10 11 12 13 14 15 16 17 18 19 20 21 22 23 24 25 26 27 28 29 30 31 32 33 34 35 36 37 38 39 40 41 42 43 44 45 46 47 48 49 50
000
ASUS43 KLMK 020302
RWRKY
KENTUCKY REGIONAL WEATHER ROUNDUP
NATIONAL WEATHER SERVICE LOUISVILLE KY
1100 PM EDT WED JUL 01 2015

NOTE "FAIR" INDICATES FEW OR NO CLOUDS BELOW 12,000 FEET
WITH NO SIGNIFICANT WEATHER AND/OR OBSTRUCTIONS TO VISIBILITY.

KYZ001>023-026-027-061>063-070>075-020400-
WESTERN AND SOUTH CENTRAL KENTUCKY

CITY           SKY/WX    TMP DP  RH WIND       PRES   REMARKS
PADUCAH        PTCLDY    73  69  87 SE3       29.89F
HENDERSON      MOCLDY    75  68  78 S7        29.88F
OWENSBORO      MOCLDY    75  71  87 SW8       29.92R
HOPKINSVILLE   CLOUDY    72  67  84 S6        29.96R
BOWLING GREEN  MOCLDY    73  66  78 SW7       29.96R
GLASGOW        NOT AVBL
$$

KYZ024-025-028>034-038-045-046-053-020400-
NORTH CENTRAL KENTUCKY

CITY           SKY/WX    TMP DP  RH WIND       PRES   REMARKS
LOUISVILLE/SDF CLOUDY    75  68  78 CALM      29.93R
LOUISVILLE/LOU MOCLDY    74  69  85 S3        29.94R
FORT KNOX      CLOUDY    71  69  93 S2        29.93R
$$

KYZ035>037-039>044-047>052-055>060-089>105-020400-
NORTHEAST KENTUCKY

CITY           SKY/WX    TMP DP  RH WIND       PRES   REMARKS
LEXINGTON      CLOUDY    70  68  93 SW3       29.95R FOG
COVINGTON      CLOUDY    70  65  84 CALM      29.94R
FRANKFORT      MOCLDY    69  67  93 CALM      29.94R FOG
$$

KYZ054-064>069-076>088-106>120-020400-
SOUTHEAST KENTUCKY

CITY           SKY/WX    TMP DP  RH WIND       PRES   REMARKS
JACKSON        CLOUDY    70  67  90 CALM      29.97S
LONDON         CLOUDY    69  64  84 SW8       29.98S
SOMERSET       NOT AVBL
MIDDLESBORO    NOT AVBL
MONTICELLO     MOCLDY    68  68 100 CALM      30.02S
$$



USA.gov is the U.S. government's official web portal to all federal, state and local government web resources and services.